Thedford, NE

3:37 PM CST on November 23, 2017 (GMT -0600)
Thedford

Weather History for KTIF - December, 2012

Change the Weather History Date:

Sunday, December 9, 2012

  Actual Average (KANW) Record (KANW)
Temperature  
Mean Temperature 16 °F -  
Max Temperature 31 °F 39 °F 69 °F (2006)
Min Temperature 0 °F 19 °F -8 °F (2013)
Degree Days  
Heating Degree Days 50    
Moisture  
Dew Point 4 °F    
Average Humidity 71    
Maximum Humidity 81    
Minimum Humidity 60    
Precipitation  
Precipitation 0.00 in - - ()
Sea Level Pressure  
Sea Level Pressure 30.09 in    
Wind  
Wind Speed 21 mph (NW)    
Max Wind Speed 34 mph    
Max Gust Speed 47 mph    
Visibility 10 miles    
Events Snow    
Averages and records for this station are not official NWS values.
T = Trace of Precipitation, MM = Missing Value Source: NWS Daily Summary

Daily Weather History Graph

Daily Weather History Graph

Search for Another Location

Airport or City:

Trip Planner

Search our weather history database for the weather conditions in past years. The results will help you decide how hot, cold, wet, or windy it might be!

Date:

Astronomy

Dec. 09, 2012 Rise Set
Actual Time 7:58 AM CST 5:10 PM CST
Civil Twilight 7:27 AM CST 5:42 PM CST
Nautical Twilight 6:52 AM CST 6:17 PM CST
Astronomical Twilight 6:18 AM CST 6:51 PM CST
Moon 3:30 AM CST (12/9) 2:21 PM CST (12/9)
Length of Visible Light 10h 15m
Length of Day
9h 12m
Waning Crescent, 18% of the Moon is Illuminated
Dec 9
Waning Crescent
Dec 13
New
Dec 19
First Quarter
Dec 28
Full
Jan 4
Last Quarter

Hourly Weather History & Observations

Time (CST) Temp. Windchill Dew Point Humidity Pressure Visibility Wind Dir Wind Speed Gust Speed Precip Events Conditions
12:15 AM 31.3 °F 19.2 °F 24.4 °F 76% 29.85 in 10.0 mi WNW 19.6 mph 27.6 mph N/A   Overcast
12:35 AM 29.7 °F 17.4 °F 22.1 °F 73% 29.85 in 10.0 mi WNW 18.4 mph 28.8 mph N/A   Overcast
12:55 AM 27.9 °F 14.0 °F 21.6 °F 77% 29.85 in 10.0 mi NW 21.9 mph 29.9 mph N/A   Overcast
1:15 AM 25.0 °F 11.3 °F 18.1 °F 75% 29.86 in 10.0 mi NW 18.4 mph 27.6 mph N/A   Mostly Cloudy
1:35 AM 23.9 °F 10.3 °F 17.2 °F 76% 29.87 in 10.0 mi WNW 17.3 mph 21.9 mph N/A   Scattered Clouds
1:55 AM 22.1 °F 8.5 °F 14.9 °F 74% 29.88 in 10.0 mi WNW 16.1 mph 27.6 mph N/A   Clear
2:15 AM 20.8 °F 5.5 °F 14.4 °F 76% 29.89 in 10.0 mi NW 19.6 mph 25.3 mph N/A   Mostly Cloudy
2:35 AM 19.9 °F 4.3 °F 13.1 °F 75% 29.90 in 10.0 mi NW 19.6 mph 24.2 mph N/A   Overcast
2:55 AM 18.5 °F 2.0 °F 10.9 °F 72% 29.91 in 10.0 mi NW 20.7 mph 28.8 mph N/A   Overcast
3:15 AM 17.2 °F -1.5 °F 9.1 °F 71% 29.92 in 10.0 mi NW 26.5 mph 34.5 mph N/A   Mostly Cloudy
3:35 AM 17.6 °F 0.9 °F 9.9 °F 72% 29.93 in 10.0 mi NW 20.7 mph 29.9 mph N/A   Overcast
3:55 AM 16.3 °F -2.3 °F 7.9 °F 69% 29.93 in 10.0 mi NW 25.3 mph 31.1 mph N/A   Overcast
4:15 AM 14.7 °F -4.1 °F 7.3 °F 73% 29.93 in 10.0 mi NW 24.2 mph 28.8 mph N/A Snow Light Snow
4:35 AM 13.1 °F -6.7 °F 4.5 °F 68% 29.95 in 10.0 mi NW 25.3 mph 33.4 mph N/A   Mostly Cloudy
4:55 AM 12.2 °F -6.7 °F 4.8 °F 72% 29.96 in 10.0 mi NW 21.9 mph 33.4 mph N/A   Scattered Clouds
5:15 AM 11.8 °F -6.3 °F 4.8 °F 73% 29.98 in 7.0 mi NW 19.6 mph 31.1 mph N/A   Mostly Cloudy
5:35 AM 11.5 °F -7.6 °F 4.1 °F 72% 29.99 in 10.0 mi NW 21.9 mph 33.4 mph N/A   Mostly Cloudy
5:55 AM 11.3 °F -6.5 °F 3.7 °F 72% 30.00 in 7.0 mi NW 18.4 mph 35.7 mph N/A   Overcast
6:15 AM 11.3 °F -10.5 °F 3.6 °F 71% 30.00 in 10.0 mi NW 29.9 mph 36.8 mph N/A   Overcast
6:35 AM 10.0 °F -8.1 °F 2.5 °F 72% 30.02 in 10.0 mi NW 18.4 mph 35.7 mph N/A   Mostly Cloudy
6:55 AM 9.5 °F -10.7 °F 2.3 °F 73% 30.02 in 7.0 mi NW 23.0 mph 32.2 mph N/A   Scattered Clouds
7:15 AM 9.3 °F -9.6 °F 2.8 °F 75% 30.03 in 10.0 mi NW 19.6 mph 33.4 mph N/A   Scattered Clouds
7:35 AM 9.0 °F -13.3 °F 0.5 °F 69% 30.04 in 10.0 mi NW 28.8 mph 41.4 mph N/A   Scattered Clouds
7:55 AM 8.8 °F -12.4 °F 2.1 °F 74% 30.06 in 7.0 mi NNW 25.3 mph 34.5 mph N/A   Scattered Clouds
8:15 AM 9.0 °F -11.8 °F 1.6 °F 72% 30.07 in 10.0 mi NW 24.2 mph 38.0 mph N/A   Scattered Clouds
8:35 AM 9.1 °F -9.3 °F 2.8 °F 76% 30.09 in 7.0 mi NW 18.4 mph 24.2 mph N/A   Mostly Cloudy
8:55 AM 9.5 °F -11.5 °F 2.1 °F 72% 30.10 in 10.0 mi NW 25.3 mph 34.5 mph N/A   Mostly Cloudy
9:15 AM 10.2 °F -9.3 °F 2.1 °F 70% 30.10 in 10.0 mi NNW 21.9 mph 29.9 mph N/A   Mostly Cloudy
9:35 AM 10.0 °F -11.5 °F 1.4 °F 68% 30.11 in 10.0 mi NNW 27.6 mph 40.3 mph N/A   Mostly Cloudy
9:55 AM 10.4 °F -12.3 °F 1.4 °F 67% 30.11 in 7.0 mi NNW 32.2 mph 41.4 mph N/A   Mostly Cloudy
10:15 AM 11.1 °F -10.7 °F 1.9 °F 67% 30.11 in 7.0 mi NNW 29.9 mph 42.6 mph N/A   Mostly Cloudy
10:35 AM 11.5 °F -9.6 °F 1.4 °F 64% 30.12 in 10.0 mi NNW 27.6 mph 39.1 mph N/A   Mostly Cloudy
10:55 AM 11.8 °F -11.0 °F 1.6 °F 63% 30.12 in 10.0 mi NNW 34.5 mph 43.7 mph N/A   Scattered Clouds
11:15 AM 12.0 °F -10.4 °F 1.4 °F 62% 30.14 in 7.0 mi NNW 33.4 mph 47.2 mph N/A   Mostly Cloudy
11:35 AM 11.8 °F -11.0 °F 1.6 °F 63% 30.15 in 7.0 mi NNW 34.5 mph 42.6 mph N/A   Mostly Cloudy
11:55 AM 12.7 °F -8.2 °F 2.1 °F 63% 30.15 in 10.0 mi NNW 28.8 mph 40.3 mph N/A   Scattered Clouds
12:15 PM 12.6 °F -9.4 °F 1.9 °F 63% 30.14 in 7.0 mi NNW 32.2 mph 44.9 mph N/A   Mostly Cloudy
12:35 PM 12.7 °F -9.4 °F 1.9 °F 62% 30.14 in 10.0 mi NW 33.4 mph 41.4 mph N/A   Mostly Cloudy
12:55 PM 12.7 °F -8.5 °F 2.1 °F 63% 30.15 in 10.0 mi NNW 29.9 mph 40.3 mph N/A   Scattered Clouds
1:15 PM 13.3 °F -9.0 °F 2.1 °F 61% 30.14 in 10.0 mi NNW 34.5 mph 42.6 mph N/A   Scattered Clouds
1:35 PM 14.0 °F -7.1 °F 2.8 °F 61% 30.14 in 10.0 mi NNW 31.1 mph 39.1 mph N/A   Scattered Clouds
1:55 PM 14.2 °F -7.2 °F 2.8 °F 61% 30.14 in 10.0 mi NNW 32.2 mph 39.1 mph N/A   Scattered Clouds
2:15 PM 14.0 °F -6.5 °F 3.2 °F 62% 30.14 in 10.0 mi NW 28.8 mph 40.3 mph N/A   Scattered Clouds
2:35 PM 13.8 °F -7.1 °F 2.8 °F 62% 30.14 in 10.0 mi NNW 29.9 mph 40.3 mph N/A   Scattered Clouds
2:55 PM 14.0 °F -7.7 °F 2.8 °F 61% 30.15 in 10.0 mi NNW 33.4 mph 39.1 mph N/A   Clear
3:15 PM 13.8 °F -6.7 °F 2.3 °F 60% 30.16 in 10.0 mi NNW 28.8 mph 40.3 mph N/A   Clear
3:35 PM 13.5 °F -6.5 °F 1.9 °F 60% 30.17 in 10.0 mi NNW 26.5 mph 35.7 mph N/A   Scattered Clouds
3:55 PM 13.1 °F -6.7 °F 2.1 °F 62% 30.18 in 10.0 mi NNW 25.3 mph 36.8 mph N/A   Clear
4:15 PM 12.2 °F -6.3 °F 1.0 °F 61% 30.19 in 10.0 mi NNW 20.7 mph 32.2 mph N/A   Clear
4:35 PM 11.8 °F -6.7 °F 1.4 °F 63% 30.21 in 10.0 mi NNW 20.7 mph 29.9 mph N/A   Clear
4:55 PM 10.9 °F -6.5 °F 1.8 °F 67% 30.21 in 10.0 mi NNW 17.3 mph 29.9 mph N/A   Clear
5:15 PM 10.4 °F -5.4 °F 2.1 °F 69% 30.22 in 10.0 mi NNW 13.8 mph 24.2 mph N/A   Clear
5:35 PM 9.5 °F -7.2 °F 1.8 °F 71% 30.22 in 10.0 mi NNW 15.0 mph 23.0 mph N/A   Clear
5:55 PM 9.1 °F -3.0 °F 1.9 °F 73% 30.23 in 10.0 mi NNW 8.1 mph 19.6 mph N/A   Clear
6:15 PM 8.6 °F -5.5 °F 2.1 °F 75% 30.22 in 10.0 mi NW 10.4 mph - N/A   Clear
6:35 PM 8.1 °F -6.2 °F 1.9 °F 76% 30.23 in 10.0 mi NW 10.4 mph - N/A   Clear
6:55 PM 7.7 °F -6.6 °F 1.9 °F 77% 30.23 in 10.0 mi NW 10.4 mph - N/A   Clear
7:15 PM 6.8 °F -5.9 °F 1.4 °F 79% 30.23 in 10.0 mi NW 8.1 mph - N/A   Clear
7:35 PM 6.1 °F -7.8 °F 0.9 °F 79% 30.23 in 10.0 mi NW 9.2 mph - N/A   Clear
7:55 PM 6.4 °F -6.3 °F 1.2 °F 79% 30.23 in 10.0 mi NW 8.1 mph - N/A   Clear
8:15 PM 5.5 °F -6.3 °F 0.5 °F 80% 30.23 in 10.0 mi WNW 6.9 mph - N/A   Clear
8:35 PM 5.0 °F -4.1 °F 0.1 °F 80% 30.22 in 10.0 mi NW 4.6 mph - N/A   Clear
8:55 PM 4.8 °F -8.3 °F -0.4 °F 79% 30.21 in 10.0 mi WNW 8.1 mph - N/A   Clear
9:15 PM 3.7 °F -5.5 °F -1.3 °F 80% 30.21 in 10.0 mi WNW 4.6 mph - N/A   Clear
9:35 PM 2.3 °F -8.8 °F -2.2 °F 81% 30.19 in 10.0 mi WNW 5.8 mph - N/A   Clear
9:55 PM 2.3 °F -12.4 °F -2.4 °F 81% 30.19 in 10.0 mi WNW 9.2 mph - N/A   Clear
10:15 PM 2.3 °F -8.8 °F -2.4 °F 81% 30.18 in 10.0 mi WNW 5.8 mph - N/A   Clear
10:35 PM 2.3 °F -10.2 °F -2.7 °F 79% 30.17 in 10.0 mi West 6.9 mph - N/A   Clear
10:55 PM 1.2 °F -6.4 °F -4.0 °F 79% 30.16 in 10.0 mi WNW 3.5 mph - N/A   Clear
11:15 PM 1.0 °F -10.3 °F -4.0 °F 79% 30.16 in 10.0 mi West 5.8 mph - N/A   Clear
11:35 PM -0.0 °F -9.9 °F -4.9 °F 80% 30.15 in 10.0 mi West 4.6 mph - N/A   Clear
11:55 PM -0.4 °F - -5.3 °F 80% 30.14 in 10.0 mi Calm Calm - N/A   Clear